Flag for Egypt Weather past 2 weeks in Alexandria, Egypt

Now
70 °F

Sunny.


Feels Like: 70 °F
Forecast: 50 / 63 °F
Wind: 2 mph from Northwest

Location: Alexandria / Nouzha

Current Time: Mar 2, 2015 at 2:26:55 PM

Latest Report: Mar 2, 2015 at 1:00 PM


Visibility: 10 mi

Pressure: 30.12 "Hg

Humidity: 35%

Dew point: 41 °F

Location of AlexandriaLocation

Historic Weather in Alexandria — Graph

°F

Alexandria temperature yesterday

Maximum temperature yesterday: 66 °F (at 1:00 PM)
Minimum temperature yesterday: 45 °F (at 7:00 AM)
Average temperature yesterday: 57 °F

Past Weeks' High & Low Weather Summary

 TemperatureHumidityPressure
High81 °F (Feb 27, 2:00 PM)100% (Feb 16, 8:00 AM)30.15 "Hg (Feb 16, 8:00 AM)
Low43 °F (Feb 16, 7:00 AM)20% (Feb 27, 4:00 PM)29.80 "Hg (Feb 24, 12:00 PM)
Average57 °F71%30.01 "Hg
* Reported Feb 15 1:00 PM — Mar 2 1:00 PM, Alexandria, Weather by CustomWeather, © 2015

Note: Actual official high and low records may vary slightly from our data, if they occured in-between our weather recording intervals... More about our weather records

Advertising

Alexandria weather history for previous 24 hours

 ConditionsComfort  
Time TempWeatherWind HumidityBarometerVisibility
1:00 PM
Mon, Mar 2
70 °FSunny.2 mph35%30.12 "Hg10 mi
12:00 PM68 °FSunny.3 mph43%30.12 "Hg10 mi
11:00 AM66 °FSunny.3 mph52%30.15 "Hg10 mi
10:00 AM63 °FSunny.5 mph68%30.15 "Hg10 mi
9:00 AM59 °FClear.2 mph77%30.12 "Hg4 mi
8:00 AM52 °FFog.No wind94%30.12 "Hg2 mi
7:00 AM46 °FFog.No wind93%30.09 "Hg1 mi
6:00 AM50 °FFog.No wind94%30.07 "Hg2 mi
5:00 AM50 °FClear.No wind94%30.07 "Hg4 mi
4:00 AM50 °FClear.1 mph94%30.07 "Hg10 mi
3:00 AM48 °FClear.2 mph94%30.07 "Hg10 mi
2:00 AM50 °FClear.2 mph88%30.07 "Hg10 mi
1:00 AM54 °FClear.1 mph88%30.07 "Hg10 mi
12:00 AM54 °FClear.2 mph88%30.09 "Hg10 mi
11:00 PM
Sun, Mar 1
54 °FClear.1 mph88%30.09 "Hg10 mi
10:00 PM55 °FClear.2 mph82%30.09 "Hg10 mi
9:00 PM59 °FClear.2 mph72%30.09 "Hg10 mi
8:00 PM61 °FClear.6 mph68%30.07 "Hg10 mi
7:00 PM61 °FClear.7 mph68%30.07 "Hg10 mi
6:00 PM61 °FClear.7 mph68%30.07 "Hg10 mi
5:00 PM64 °FSunny.8 mph56%30.07 "Hg10 mi
4:00 PM64 °FSunny.10 mph60%30.07 "Hg10 mi
3:00 PM66 °FPassing clouds.9 mph56%30.07 "HgN/A
2:00 PM66 °FPassing clouds.8 mph60%30.07 "HgN/A
Weather by CustomWeather, © 2015

See weather overviewHow to use our weather pages